SCP
1 1 1 1 1 1 1 1 1 2 2 2 2 2 3 3 3 3 3 3 3 3 2 2 3 2 2 2 2 2 2 2 2 2 2 2 2 2 2 1 1 1 1
1 1 1 1 1 1 1 1 1 2 2 2 2 2 2 3 3 3 3 3 3 3 2 3 3 2 2 2 2 2 2 2 2 2 2 2 2 2 2 2 1 1 1
1 1 1 1 1 1 1 1 1 1 1 1 1 2 2 3 3 3 3 3 3 3 3 3 3 2 2 2 2 2 3 3 3 3 2 2 2 2 2 2 2 1 1
1 1 1 1 2 2 1 1 1 1 1 1 1 2 2 2 3 3 3 3 3 3 2 3 3 2 2 1 2 2 3 3 3 3 3 3 2 2 2 2 2 2 2
2 2 2 2 2 2 2 1 1 1 1 1 1 2 2 2 3 3 3 3 3 3 2 2 2 2 2 1 1 2 2 2 3 3 3 3 2 2 2 2 2 2 2
2 3 3 4 3 2 2 1 1 1 1 1 1 1 1 2 2 3 3 3 2 2 1 1 1 1 1 1 1 1 1 2 3 3 3 3 2 2 1 1 1 2 2
3 4 4 5 3 2 1 1 1 1 1 1 1 1 1 2 2 2 2 2 1 1 1 1 1 1 1 1 1 1 1 2 2 2 2 3 2 2 2 1 1 1 2
5 5 5 4 2 1 1 1 1 1 1 1 1 1 1 2 2 2 2 1 1 1 1 1 1 1 1 2 2 1 1 1 2 2 2 2 2 2 2 2 2 2 2
6 5 3 2 1 1 1 1 1 1 1 1 1 1 2 2 2 2 2 1 1 1 1 1 1 2 2 2 2 1 1 1 1 2 2 2 2 2 2 2 2 2 2
5 4 2 2 2 2 1 1 1 1 1 2 2 2 2 3 3 3 2 2 1 1 1 1 1 2 2 2 2 1 1 1 1 1 1 1 2 2 2 2 2 2 2
5 3 2 2 3 2 1 1 1 2 2 2 3 3 3 3 4 4 3 2 1 1 1 1 1 1 2 2 2 2 1 1 1 1 1 1 1 1 1 1 2 2 2
4 3 2 2 3 2 2 2 2 2 3 5 6 6 5 4 4 4 3 2 2 1 1 1 1 1 1 1 2 2 1 1 1 1 1 1 1 1 1 1 1 1 2
3 2 2 3 3 3 2 2 2 4 7 9 10 9 7 5 4 3 3 2 2 2 1 1 1 1 1 1 1 1 1 1 1 1 1 1 1 1 1 1 1 1 1
3 3 4 4 4 3 2 2 4 7 11 13 12 11 8 5 3 3 3 3 3 2 1 1 1 1 2 2 2 1 1 1 1 1 0 0 1 1 1 1 1 1 1
4 4 5 5 4 3 3 3 4 8 12 13 12 10 7 4 3 3 3 3 3 3 2 2 2 2 2 2 2 2 2 1 1 1 0 0 0 0 1 1 1 1 1
5 5 5 5 4 3 3 3 4 6 9 10 9 7 5 4 3 3 3 3 3 3 2 2 2 2 3 3 2 2 2 2 1 1 0 0 0 0 0 1 1 1 1
6 5 5 4 4 4 4 3 3 4 5 6 6 5 5 5 4 4 4 3 3 3 2 2 2 2 3 3 2 2 2 2 2 1 1 0 0 0 0 1 1 1 1
6 5 4 4 4 4 4 3 3 3 3 4 4 5 5 5 5 5 5 4 4 3 2 2 2 2 3 3 3 2 2 2 2 2 1 1 0 0 0 0 0 0 0
6 5 4 4 5 4 4 3 3 3 3 4 4 4 5 5 6 6 6 5 5 4 3 2 2 2 3 3 3 2 2 2 2 2 1 1 1 0 0 0 0 0 0
5 4 4 4 4 4 4 4 3 3 3 4 4 4 4 5 5 5 5 5 5 5 4 3 2 3 3 4 3 3 2 2 2 2 2 1 1 1 1 1 0 0 0
4 4 4 4 4 4 3 3 3 3 3 4 4 5 5 5 4 4 4 4 4 4 4 3 2 3 4 4 4 3 3 3 3 3 2 2 2 2 1 1 1 0 0
4 4 5 5 4 4 3 2 2 3 4 4 5 5 5 4 3 3 2 2 3 3 3 3 3 3 3 4 3 3 4 4 4 4 3 2 2 2 2 2 1 1 0
4 4 4 4 4 3 2 1 1 2 3 4 5 5 5 4 3 3 3 2 2 2 3 3 3 3 3 3 3 4 4 4 5 6 5 4 3 3 2 2 2 1 1
4 4 4 3 3 2 2 1 1 2 3 3 4 4 4 4 3 3 3 3 2 2 2 2 3 2 2 2 3 3 4 4 4 5 5 4 3 3 2 2 2 1 1
5 5 5 3 3 2 2 1 1 2 3 3 4 4 4 3 2 2 2 3 2 2 1 1 1 1 1 1 2 3 3 3 4 4 4 3 3 3 2 2 2 1 1
7 7 6 4 3 2 2 1 2 2 3 3 4 4 3 3 2 1 2 2 2 1 1 1 1 0 0 0 1 2 2 2 3 4 4 3 2 3 3 2 2 1 1
Wind_Speed
0 1 1 1 1 0 1 1 1 1 2 3 3 3 3 3 3 3 1 4 4 5 6 7 7 7 8 9 10 10 11 12 12 12 11 11 11 10 10 10 10 10 9
0 0 1 1 1 1 1 1 1 1 2 2 3 3 4 3 3 4 3 4 7 7 6 7 7 7 8 9 10 10 11 11 11 12 12 12 11 11 11 10 10 10 10
0 1 1 1 1 1 0 1 1 1 2 2 2 3 3 3 3 3 3 3 3 7 8 7 7 7 8 8 9 9 9 9 10 11 12 12 11 11 11 11 11 10 10
1 2 1 1 1 1 1 0 1 1 2 2 2 3 2 2 3 3 3 3 3 2 6 7 7 6 7 8 9 9 8 9 9 10 11 11 12 12 12 12 12 11 11
1 2 1 1 2 1 1 1 0 2 2 2 2 2 2 2 2 3 3 3 3 3 3 5 8 8 7 6 6 7 8 8 9 10 10 11 12 12 13 13 12 12 12
1 2 1 1 2 1 1 1 1 2 2 2 3 2 2 2 2 2 3 2 2 3 3 3 4 6 9 7 6 7 7 8 9 9 10 10 11 12 12 12 13 12 12
1 2 2 0 1 1 2 2 2 1 2 2 2 2 2 3 1 2 2 2 2 2 2 3 3 2 3 9 7 6 7 8 8 8 9 10 10 10 11 13 13 13 13
2 1 1 2 1 1 1 2 2 2 2 1 2 3 2 2 2 1 1 1 2 2 2 2 1 2 3 2 3 5 6 7 8 8 9 9 9 9 10 11 12 12 12
2 1 1 2 2 2 1 2 2 3 2 1 2 3 3 2 2 2 2 1 1 2 2 2 2 2 3 2 2 4 4 5 6 8 8 9 9 9 9 9 10 11 12
1 1 2 2 2 2 1 2 1 2 3 2 1 1 3 4 4 2 1 0 1 2 2 3 2 2 2 2 1 1 2 4 5 6 7 8 8 8 9 9 10 11 12
2 2 2 2 2 2 2 2 2 3 3 3 2 2 2 2 4 4 3 2 2 2 1 2 2 3 2 2 2 1 1 2 4 5 6 6 7 7 8 10 11 11 12
2 2 2 1 2 2 2 2 3 2 2 3 3 3 3 3 3 3 4 4 3 2 2 2 3 3 3 3 2 2 1 2 3 4 5 6 7 7 7 8 9 11 11
2 1 2 2 2 2 2 2 2 3 3 3 3 3 3 3 3 4 4 4 4 3 2 2 2 2 3 3 1 1 2 3 3 3 4 5 6 7 7 7 8 8 9
1 1 2 2 2 2 3 2 3 3 2 3 3 3 3 3 3 3 4 5 5 4 3 3 2 2 2 3 2 2 2 3 2 3 4 5 5 6 6 6 6 6 6
2 2 2 2 2 2 3 3 3 3 3 4 3 3 3 3 3 3 3 4 5 5 4 2 3 2 2 2 2 3 4 1 2 3 3 4 4 5 5 5 5 4 4
2 2 3 3 3 3 3 4 3 2 3 3 3 3 4 3 3 3 4 4 4 5 5 4 3 3 3 4 2 3 4 2 4 4 3 2 3 3 3 4 3 3 3
2 3 4 4 4 4 4 4 4 3 4 3 3 3 4 4 4 3 3 4 4 4 5 4 4 3 3 5 5 5 5 4 2 5 3 2 2 2 3 2 3 2 3
3 3 3 4 4 4 4 4 4 4 4 4 3 4 4 3 4 4 3 4 3 3 4 5 5 4 4 5 5 6 5 4 4 3 5 4 3 3 3 3 2 2 2
3 3 3 4 4 4 4 4 4 4 4 4 4 4 4 4 4 3 4 4 3 4 4 5 5 3 4 4 5 5 5 4 5 2 5 6 5 4 4 3 3 2 2
3 3 3 4 4 4 5 5 5 5 5 5 5 4 5 5 5 4 4 4 4 4 4 5 5 4 4 4 4 5 4 3 4 4 2 3 4 7 6 4 3 2 2
3 3 4 4 4 4 4 4 5 5 5 5 5 5 5 4 3 4 4 4 4 4 5 5 5 4 4 4 4 4 5 4 4 3 3 3 2 3 3 5 4 3 3
3 3 4 4 5 4 2 3 5 5 5 6 6 5 5 4 4 5 4 5 5 5 5 5 5 5 5 5 4 5 5 5 4 2 4 4 3 3 3 2 2 3 3
3 4 4 5 5 3 0 2 4 6 6 6 6 5 5 3 3 4 4 6 6 7 7 7 7 7 7 6 6 6 5 6 6 5 4 5 4 4 3 1 4 4 4
3 3 4 4 4 3 1 2 5 6 6 5 5 5 5 5 4 4 5 5 6 6 6 7 6 7 6 6 6 7 7 7 6 4 4 5 4 4 4 2 5 5 5
3 3 3 3 4 3 1 2 5 5 4 6 5 5 5 5 1 2 5 6 6 6 5 5 6 7 7 7 7 6 6 6 6 4 2 4 5 5 4 4 3 7 7
3 3 2 3 3 3 0 1 5 4 4 5 4 4 3 3 1 2 5 5 6 6 6 5 6 7 8 8 8 7 6 6 6 5 2 4 5 4 4 3 3 2 3
Wind_Direction
199 72 23 329 297 293 201 219 230 223 236 242 253 254 257 262 270 268 228 185 210 235 244 247 242 240 233 229 229 227 224 224 223 224 226 229 231 233 234 231 227 225 226
69 358 241 284 300 312 341 299 263 239 249 260 258 261 265 269 261 264 264 206 200 217 234 243 245 243 243 239 236 235 230 228 227 226 225 227 229 231 233 229 228 227 228
135 263 272 263 314 320 285 253 274 262 247 250 256 257 252 260 271 267 269 273 227 200 211 227 238 242 245 247 242 237 230 227 230 229 227 228 229 229 229 228 229 228 227
289 282 298 305 314 272 255 254 278 289 283 281 272 267 262 247 251 256 254 254 269 254 199 205 226 240 243 245 241 236 230 229 232 234 232 230 229 229 228 228 228 229 227
260 272 316 339 281 281 294 288 20 297 292 295 269 243 256 250 249 251 264 258 250 265 264 192 209 224 234 237 235 232 231 234 236 235 236 235 232 231 228 228 229 230 228
247 281 251 288 291 308 315 338 311 291 288 293 289 285 254 250 247 247 260 255 242 252 261 269 231 207 206 216 226 235 239 240 241 237 235 236 234 233 229 229 230 229 230
262 268 292 280 289 322 319 308 297 269 289 306 289 277 224 213 221 243 263 280 271 264 266 265 265 276 211 198 207 229 242 243 244 241 238 237 237 234 230 230 231 230 230
260 244 282 278 273 289 289 296 289 301 309 306 301 295 269 187 185 211 242 247 300 285 271 264 270 251 273 244 175 206 240 246 247 248 244 239 239 237 233 234 232 230 227
248 287 274 279 274 254 243 260 275 286 305 306 311 310 310 328 315 190 233 258 287 292 284 287 258 255 255 257 232 198 230 249 251 252 250 248 243 239 236 234 235 233 231
235 229 241 249 259 265 267 261 272 287 285 291 271 281 304 323 299 291 230 230 259 263 288 290 290 266 258 262 257 325 238 252 256 255 255 253 248 241 238 237 237 236 234
218 227 235 255 258 265 282 300 302 293 290 296 300 287 269 254 266 286 295 297 270 253 266 276 290 288 280 275 270 4 176 261 265 262 263 258 254 247 244 244 244 243 239
213 219 233 258 266 288 286 277 281 275 293 302 294 290 285 288 285 282 284 279 281 279 279 289 286 290 282 275 287 54 182 247 270 269 267 265 262 257 254 255 255 252 245
217 225 259 259 275 277 282 279 265 288 280 274 277 285 291 289 292 288 287 288 286 281 262 251 271 296 289 285 294 75 203 216 253 267 271 268 263 260 258 259 259 260 252
263 265 252 254 265 272 273 270 270 261 261 266 273 281 282 284 289 287 286 290 285 277 268 280 286 290 303 293 3 260 260 178 232 261 272 275 269 262 261 263 261 259 260
244 234 248 254 257 259 267 266 264 275 273 268 274 266 269 282 284 285 281 278 283 287 285 280 280 301 294 302 344 290 293 138 211 251 265 275 275 266 257 253 251 249 258
258 255 251 255 259 257 254 257 259 259 265 267 273 287 287 286 288 282 281 280 279 279 285 301 296 304 327 310 313 295 288 223 211 216 226 252 267 257 254 253 245 237 251
256 248 249 249 254 256 256 255 268 268 262 268 272 273 276 283 282 280 275 271 270 275 277 286 292 307 311 302 310 299 284 276 243 169 186 226 257 262 255 244 240 236 251
253 255 257 253 254 257 258 258 264 268 263 262 270 280 285 280 269 276 279 278 281 280 275 282 286 288 290 288 291 289 290 286 286 162 176 206 231 247 235 231 240 241 248
257 258 260 260 259 258 256 255 257 261 261 263 268 273 282 289 282 278 276 280 281 273 271 272 278 286 285 293 295 288 289 287 284 232 191 196 200 214 223 222 231 235 242
256 259 260 261 261 262 264 265 262 263 267 269 272 273 275 280 283 284 275 274 275 275 267 268 277 284 287 298 290 291 288 280 279 286 291 259 202 201 207 203 196 212 234
261 264 266 267 266 263 272 287 279 270 268 270 270 269 269 279 303 293 296 295 285 277 279 282 285 288 296 304 298 301 300 295 282 288 293 284 256 251 221 196 187 188 211
269 269 267 268 267 273 0 325 292 279 272 270 270 268 261 242 230 229 259 277 287 283 290 292 292 297 298 297 304 298 302 299 297 309 299 292 284 282 279 275 140 165 203
274 269 270 270 270 281 307 275 278 278 272 274 274 271 272 270 253 259 237 231 246 258 264 276 285 292 298 303 300 290 288 294 297 301 294 291 285 279 276 240 150 178 206
269 270 271 273 274 280 253 275 279 264 270 267 266 264 267 276 281 290 275 268 265 257 251 253 271 280 289 299 291 281 280 276 273 269 273 282 289 286 280 259 171 185 204
263 265 269 271 273 282 279 269 279 264 264 264 263 263 266 264 320 293 270 273 278 276 248 235 255 270 280 279 282 284 280 278 280 281 275 283 292 295 285 273 210 189 204
263 269 275 276 279 286 254 252 277 269 268 264 253 251 243 275 301 270 265 273 276 285 294 282 258 252 255 249 235 250 272 278 284 283 287 279 282 292 288 281 283 255 229